Hourly Weather Bolshie Noviki

Today, 1 August, Sunday

Time Temperature Precipitation Wind Pressure Humidity
00:00 +18°C° 0.6 mm 3 mps 739 mmHg 91%
01:00 +18°C° 0.6 mm 3 mps 739 mmHg 94%
02:00 +18°C° 0 mm 3 mps 739 mmHg 96%
03:00 +17°C° 0.1 mm 3 mps 739 mmHg 96%
04:00 +17°C° 0.1 mm 2 mps 739 mmHg 97%
05:00 +17°C° 0.1 mm 2 mps 739 mmHg 97%
06:00 +18°C° 0 mm 2 mps 739 mmHg 92%
07:00 +19°C° 0 mm 2 mps 739 mmHg 87%
08:00 +20°C° 0 mm 3 mps 740 mmHg 82%
09:00 +22°C° 0 mm 3 mps 740 mmHg 70%
10:00 +25°C° 0 mm 3 mps 740 mmHg 58%
11:00 +27°C° 0 mm 3 mps 740 mmHg 47%
12:00 +27°C° 0 mm 3 mps 740 mmHg 45%
13:00 +28°C° 0 mm 3 mps 740 mmHg 43%
14:00 +28°C° 0 mm 3 mps 740 mmHg 42%
15:00 +28°C° 0 mm 3 mps 740 mmHg 46%
16:00 +27°C° 0 mm 2 mps 740 mmHg 51%
17:00 +26°C° 0 mm 2 mps 740 mmHg 55%
18:00 +25°C° 0.1 mm 2 mps 739 mmHg 60%
19:00 +24°C° 0.1 mm 2 mps 739 mmHg 64%
20:00 +23°C° 0.1 mm 2 mps 739 mmHg 69%
21:00 +22°C° 0.8 mm 1 mps 738 mmHg 77%
22:00 +21°C° 0.8 mm 1 mps 738 mmHg 85%
23:00 +20°C° 0.8 mm 1 mps 738 mmHg 94%

Tomorrow, 2 August, Monday

Time Temperature Precipitation Wind Pressure Humidity
00:00 +18°C° 0.2 mm 2 mps 738 mmHg 95%
01:00 +18°C° 0.2 mm 2 mps 737 mmHg 95%
02:00 +18°C° 0.2 mm 2 mps 737 mmHg 96%
03:00 +18°C° 0.3 mm 3 mps 736 mmHg 96%
04:00 +18°C° 0.3 mm 3 mps 735 mmHg 96%
05:00 +19°C° 0.3 mm 4 mps 734 mmHg 95%
06:00 +19°C° 0.2 mm 5 mps 733 mmHg 93%
07:00 +20°C° 0.2 mm 6 mps 733 mmHg 90%
08:00 +21°C° 0.2 mm 8 mps 733 mmHg 88%
09:00 +20°C° 0.2 mm 7 mps 733 mmHg 88%
10:00 +18°C° 0.2 mm 7 mps 734 mmHg 87%
11:00 +18°C° 0.2 mm 7 mps 735 mmHg 87%
12:00 +19°C° 0.1 mm 6 mps 735 mmHg 85%
13:00 +19°C° 0.1 mm 6 mps 736 mmHg 83%
14:00 +19°C° 0.1 mm 6 mps 737 mmHg 82%
15:00 +17°C° 0.1 mm 5 mps 737 mmHg 83%
16:00 +17°C° 0.1 mm 5 mps 737 mmHg 85%
17:00 +16°C° 0.1 mm 5 mps 738 mmHg 87%
18:00 +17°C° 0.2 mm 4 mps 738 mmHg 89%
19:00 +16°C° 0.2 mm 3 mps 738 mmHg 92%
20:00 +16°C° 0.2 mm 3 mps 739 mmHg 94%
21:00 +16°C° 0.3 mm 3 mps 739 mmHg 95%
22:00 +16°C° 0.3 mm 3 mps 739 mmHg 95%
23:00 +16°C° 0.3 mm 3 mps 740 mmHg 95%

Day after tomorrow, 3 August, Tuesday

Time Temperature Precipitation Wind Pressure Humidity
00:00 +14°C° 0 mm 3 mps 740 mmHg 96%
01:00 +13°C° 0 mm 3 mps 740 mmHg 96%
02:00 +13°C° 0 mm 2 mps 740 mmHg 96%
03:00 +13°C° 0 mm 2 mps 741 mmHg 96%
04:00 +13°C° 0 mm 2 mps 741 mmHg 95%
05:00 +13°C° 0 mm 2 mps 741 mmHg 95%
06:00 +13°C° 0.1 mm 3 mps 741 mmHg 90%
07:00 +16°C° 0.1 mm 3 mps 741 mmHg 85%
08:00 +17°C° 0.1 mm 4 mps 742 mmHg 79%
09:00 +17°C° 0.1 mm 5 mps 742 mmHg 71%
10:00 +20°C° 0.1 mm 5 mps 742 mmHg 63%
11:00 +21°C° 0.1 mm 6 mps 742 mmHg 54%
12:00 +21°C° 0.1 mm 6 mps 742 mmHg 53%
13:00 +22°C° 0.1 mm 6 mps 742 mmHg 52%
14:00 +22°C° 0.1 mm 6 mps 742 mmHg 50%
15:00 +22°C° 0 mm 6 mps 742 mmHg 52%
16:00 +21°C° 0 mm 5 mps 742 mmHg 54%
17:00 +21°C° 0 mm 5 mps 742 mmHg 56%
18:00 +19°C° 0 mm 4 mps 743 mmHg 64%
19:00 +18°C° 0 mm 3 mps 743 mmHg 72%
20:00 +16°C° 0 mm 2 mps 743 mmHg 79%
21:00 +15°C° 0 mm 2 mps 744 mmHg 83%
22:00 +15°C° 0 mm 2 mps 744 mmHg 86%
23:00 +14°C° 0 mm 2 mps 744 mmHg 90%

4 August, Wednesday

Time Temperature Precipitation Wind Pressure Humidity
00:00 +14°C° 0 mm 2 mps 744 mmHg 90%
01:00 +13°C° 0 mm 1 mps 744 mmHg 90%
02:00 +13°C° 0 mm 1 mps 745 mmHg 90%
03:00 +13°C° 0 mm 1 mps 745 mmHg 89%
04:00 +13°C° 0 mm 1 mps 745 mmHg 88%
05:00 +13°C° 0 mm 1 mps 745 mmHg 87%
06:00 +14°C° 0 mm 1 mps 745 mmHg 83%
07:00 +16°C° 0 mm 1 mps 745 mmHg 79%
08:00 +18°C° 0 mm 1 mps 746 mmHg 75%
09:00 +18°C° 0 mm 2 mps 746 mmHg 68%
10:00 +20°C° 0 mm 2 mps 746 mmHg 61%
11:00 +23°C° 0 mm 2 mps 745 mmHg 53%
12:00 +24°C° 0 mm 2 mps 745 mmHg 49%
13:00 +24°C° 0 mm 2 mps 745 mmHg 45%
14:00 +25°C° 0 mm 2 mps 745 mmHg 40%
15:00 +25°C° 0 mm 2 mps 745 mmHg 42%
16:00 +25°C° 0 mm 1 mps 745 mmHg 43%
17:00 +24°C° 0 mm 1 mps 745 mmHg 45%
18:00 +23°C° 0 mm 1 mps 745 mmHg 51%
19:00 +21°C° 0 mm 1 mps 745 mmHg 56%
20:00 +19°C° 0 mm 1 mps 745 mmHg 62%
21:00 +19°C° 0 mm 1 mps 745 mmHg 64%
22:00 +17°C° 0 mm 2 mps 745 mmHg 66%
23:00 +17°C° 0 mm 2 mps 745 mmHg 68%

5 August, Thursday

Time Temperature Precipitation Wind Pressure Humidity
00:00 +16°C° 0.1 mm 2 mps 745 mmHg 72%
01:00 +16°C° 0.1 mm 2 mps 744 mmHg 77%
02:00 +16°C° 0.1 mm 2 mps 744 mmHg 82%
03:00 +16°C° 0.1 mm 2 mps 744 mmHg 85%
04:00 +16°C° 0.1 mm 2 mps 744 mmHg 89%
05:00 +16°C° 0.1 mm 2 mps 744 mmHg 92%
06:00 +16°C° 0 mm 2 mps 744 mmHg 91%
07:00 +16°C° 0 mm 3 mps 744 mmHg 91%
08:00 +16°C° 0 mm 3 mps 744 mmHg 90%
09:00 +17°C° 0 mm 3 mps 744 mmHg 88%
10:00 +18°C° 0 mm 4 mps 743 mmHg 85%
11:00 +19°C° 0 mm 4 mps 743 mmHg 83%
12:00 +19°C° 0.2 mm 4 mps 743 mmHg 82%
13:00 +19°C° 0.2 mm 4 mps 743 mmHg 82%
14:00 +20°C° 0.2 mm 4 mps 743 mmHg 82%
15:00 +20°C° 0.1 mm 4 mps 743 mmHg 83%
16:00 +19°C° 0.1 mm 4 mps 743 mmHg 84%
17:00 +19°C° 0.1 mm 3 mps 742 mmHg 85%
18:00 +19°C° 0.1 mm 3 mps 742 mmHg 86%
19:00 +18°C° 0.1 mm 4 mps 742 mmHg 87%
20:00 +18°C° 0.1 mm 4 mps 742 mmHg 88%
21:00 +17°C° 0 mm 4 mps 742 mmHg 91%
22:00 +15°C° 0 mm 4 mps 741 mmHg 93%
23:00 +14°C° 0 mm 3 mps 741 mmHg 96%

6 August, Friday

Time Temperature Precipitation Wind Pressure Humidity
00:00 +14°C° 0 mm 4 mps 741 mmHg 96%
01:00 +14°C° 0 mm 4 mps 740 mmHg 97%
02:00 +15°C° 0 mm 4 mps 740 mmHg 97%
03:00 +15°C° 0 mm 4 mps 740 mmHg 97%
04:00 +15°C° 0 mm 4 mps 739 mmHg 96%
05:00 +15°C° 0 mm 5 mps 739 mmHg 95%
06:00 +15°C° 0.4 mm 4 mps 739 mmHg 96%
07:00 +15°C° 0.4 mm 4 mps 738 mmHg 96%
08:00 +17°C° 0.4 mm 4 mps 737 mmHg 97%
09:00 +17°C° 1.4 mm 4 mps 737 mmHg 96%
10:00 +16°C° 1.4 mm 5 mps 737 mmHg 96%
11:00 +17°C° 1.4 mm 5 mps 737 mmHg 96%
12:00 +19°C° 0.3 mm 5 mps 736 mmHg 93%
13:00 +20°C° 0.3 mm 5 mps 736 mmHg 90%
14:00 +21°C° 0.3 mm 5 mps 735 mmHg 87%
15:00 +22°C° 0.5 mm 6 mps 735 mmHg 82%
16:00 +22°C° 0.5 mm 6 mps 735 mmHg 77%
17:00 +23°C° 0.5 mm 6 mps 734 mmHg 72%
18:00 +21°C° 0.1 mm 6 mps 734 mmHg 77%
19:00 +20°C° 0.1 mm 7 mps 734 mmHg 82%
20:00 +17°C° 0.1 mm 7 mps 734 mmHg 87%
21:00 +17°C° 0.2 mm 7 mps 735 mmHg 90%
22:00 +16°C° 0.2 mm 7 mps 735 mmHg 93%
23:00 +16°C° 0.2 mm 7 mps 735 mmHg 96%
Show more

We Need Your Consent

Meteoprog and our Service Providers may store and access personal data such as cookies, device identifiers or other similar technologies on your device and process such data to personalise content and ads, as well as provide social media features and to analyse the traffic.

  • Store and/or access information on your device

    Cookies, device identifiers or other information can be stored or accessed on your device for the purposes indicated above.

  • Personalised ads and content, ad and content measurement, audience insights, and products development

    Ads and content can be personalised based on a profile. More data can be added to better personalise ads and content. Ad and content performance can be measured. Insights about the audience who saw the ads and content can be derived. Such data can be used to develop or improve user’s experience, systems and software.

By clicking ‘I Agree’ you will allow the use of indicated cookies, device identifiers, web beacons or other similar technologies. Your settings can be changed in the browser on your device.

For certain purposes, legitimate interests may be relied on, rather than consent. You can read more about this in our Privacy and Cookie Policy.